[[{"header":{"parameterUnit":"m.s-1","parameterCategory":1,"la1":30.2991,"la2":30.254,"lo1":-89.0895,"lo2":-89.0444,"dy":0.0017,"dx":0.0017,"nx":28,"ny":28,"refTime":"2025-05-28T03:00:00:Z","depth":0,"parameterNumber":2,"parameterNumberName":"U-component_of_WINDS"},"data":[0,0,0,0,0,0,0,0,0,0,0,0,0,0,0,0,0,0,0,0,0,0,0,0,0,0,0,0,0,0,0,0,0,0,0,0,0,0,0,0,0,0,0,0,0,0,0,0,0,0,0,0,0,0,0,0,0,0,2.116,2.1161,0,2.123,2.1231,2.1232,2.1251,2.1251,2.1251,2.125,2.1316,2.1318,2.132,0,0,0,0,0,0,0,0,0,0,0,0,0,2.1037,2.1039,2.116,2.1161,2.1162,2.123,2.1231,2.1232,2.1251,2.1251,2.125,2.125,2.1315,2.1318,2.132,0,0,0,0,0,0,0,0,0,0,0,0,0,2.1097,2.104,2.116,2.118,2.1182,2.123,2.1231,2.1232,2.1251,2.1251,2.125,2.125,2.1315,2.1318,2.1321,2.1351,0,0,2.133,2.1332,0,0,0,0,0,0,0,0,2.1093,2.1101,2.1176,2.1179,2.1182,2.1232,2.1212,2.1272,2.1252,2.1225,2.125,2.125,2.1288,2.1293,2.1307,2.1354,2.1357,2.1331,2.1333,2.1334,2.1335,0,0,0,0,0,0,0,2.1089,2.1098,2.1187,2.1177,2.118,2.1183,2.1191,2.1223,2.1259,2.1227,2.1229,2.1237,2.1289,2.1304,2.1309,2.1358,2.1331,2.1333,2.1335,2.1336,2.1431,2.1432,0,0,0,0,0,0,2.1082,2.1095,2.1185,2.119,2.1135,2.1186,2.1195,2.1216,2.1258,2.1264,2.1238,2.1238,2.1299,2.1305,2.1311,2.1349,2.1334,2.1337,2.1339,2.1431,2.1432,2.1432,0,0,0,0,0,0,2.108,2.109,2.1182,2.1143,2.1155,2.1189,2.1212,2.1218,2.1233,2.1266,2.1272,2.1247,2.1299,2.1307,2.1341,2.1352,2.1338,2.1341,2.143,2.1431,2.1432,2.1425,0,0,0,0,0,0,2.1076,2.1089,2.1103,2.1143,2.1157,2.1213,2.1213,2.1219,2.1239,2.124,2.1277,2.1282,2.1299,2.1336,2.1344,2.1356,2.1344,2.1429,2.1431,2.1432,2.1425,2.1426,2.1427,0,0,0,0,0,2.1072,2.1097,2.1104,2.1114,2.1175,2.1214,2.1221,2.1242,2.124,2.1252,2.1274,2.1281,2.1349,2.134,2.1349,2.1361,2.1429,2.143,2.1432,2.1424,2.1426,2.1427,0,0,0,0,0,0,2.1056,2.1103,2.111,2.115,2.1178,2.1217,2.1234,2.1243,2.1271,2.1271,2.1294,2.1302,2.1334,2.1351,2.134,2.1392,2.1389,2.1392,2.138,2.1382,2.1383,2.1378,2.1346,0,0,0,0,0,2.1057,2.1087,2.1126,2.1157,2.1171,2.12,2.1218,2.1231,2.126,2.1272,2.1295,2.1321,2.1349,2.1366,2.1393,2.1427,2.1434,2.144,2.1441,2.1442,2.1444,2.1462,2.1464,2.1437,2.1437,2.1437,0,0,2.106,2.1089,2.1107,2.1155,2.1178,2.1206,2.121,2.1239,2.126,2.1275,2.131,2.1328,2.1358,2.1392,2.1408,2.1407,2.1453,2.1443,2.1444,2.1446,2.1463,2.1466,2.1468,2.1438,2.1438,2.1438,0,0,2.108,2.1106,2.1134,2.1157,2.1193,2.1212,2.1219,2.1256,2.1269,2.1304,2.1316,2.1339,2.1386,2.1407,2.1424,2.145,2.1457,2.1457,2.1463,2.148,2.1482,2.1484,2.1492,2.1495,2.146,2.146,2.146,0,2.1078,2.1123,2.1147,2.1177,2.1196,2.1213,2.1241,2.1261,2.1303,2.1315,2.1314,2.1373,2.1394,2.1432,2.1439,2.1452,2.1459,2.1454,2.148,2.1482,2.1485,2.1492,2.1496,2.146,2.146,2.146,2.146,0,2.1119,2.115,2.1168,2.121,2.1231,2.126,2.1285,2.1304,2.1315,2.1334,2.1367,2.1394,2.1426,2.1436,2.1447,2.1475,2.1474,2.1476,2.1473,2.1487,2.1494,2.1498,2.1459,2.1459,2.146,2.146,0,0,2.1131,2.1186,2.1192,2.121,2.125,2.1273,2.1301,2.1334,2.1349,2.1376,2.1399,2.1438,2.144,2.1459,2.1472,2.1486,2.1503,2.1487,2.1488,2.1488,2.1535,2.1532,2.1536,2.1508,2.1509,2.151,2.1532,0,2.1155,2.1209,2.123,2.1272,2.1299,2.1315,2.1339,2.1364,2.1382,2.1406,2.1424,2.1451,2.1452,2.1463,2.1479,2.1498,2.1513,2.1497,2.1528,2.1529,2.152,2.154,2.1538,2.1558,2.1535,2.1536,2.1536,0,2.1191,2.1221,2.1266,2.1301,2.1313,2.1335,2.1366,2.139,2.1418,2.1429,2.145,2.1462,2.1489,2.1484,2.1521,2.1509,2.1523,2.1534,2.1535,2.1539,2.1533,2.1543,2.1565,2.1568,2.1541,2.1541,2.154,0,2.1194,2.1245,2.1279,2.1294,2.1336,2.1351,2.1368,2.1396,2.1414,2.1441,2.1452,2.1481,2.1496,2.1517,2.1535,2.153,2.1569,2.1567,2.1578,2.1577,2.1586,2.1585,2.1609,2.1595,2.1595,2.1595,2.1595,0,2.1219,2.1246,2.1281,2.1301,2.1331,2.1354,2.1381,2.14,2.1424,2.1447,2.1461,2.1481,2.1505,2.1527,2.1542,2.1569,2.1576,2.1584,2.1588,2.1583,2.1582,2.1592,2.1591,2.1596,2.1595,2.1595,2.1595,0,2.1228,2.1253,2.129,2.1327,2.1337,2.1357,2.1387,2.1406,2.1424,2.1452,2.146,2.1487,2.1514,2.1535,2.157,2.1579,2.1608,2.1612,2.1599,2.1601,2.1611,2.1609,2.1642,2.1647,2.163,2.163,2.163,0,2.1242,2.1263,2.1303,2.132,2.1338,2.1365,2.1384,2.1406,2.1425,2.1458,2.1472,2.1501,2.1525,2.1567,2.1589,2.1615,2.1619,2.1628,2.1623,2.1617,2.1618,2.1616,2.1618,2.1629,2.1629,2.1629,2.1629,0,2.1264,2.1275,2.1303,2.1334,2.1356,2.1382,2.1407,2.1419,2.1446,2.1465,2.1494,2.1513,2.1549,2.1576,2.1605,2.162,2.1628,2.1631,2.1635,2.163,2.1622,2.1625,2.16,2.163,2.163,2.163,2.163,2.163,2.1275,2.1294,2.1325,2.1355,2.1377,2.14,2.1419,2.144,2.1465,2.1497,2.1508,2.1537,2.1563,2.1602,2.1618,2.164,2.164,2.1645,2.1647,2.1648,2.1647,2.1618,2.1645,2.1645,2.1645,2.1645,2.1645,0,2.1297,2.1318,2.1345,2.1381,2.1403,2.1411,2.1439,2.1457,2.1483,2.1507,2.1531,2.1563,2.1589,2.1613,2.1639,2.1652,2.1656,2.1658,2.1657,2.166,2.1646,2.164,2.1654,2.1654,2.1654,2.1654,2.1654,2.1654,2.1311,2.1344,2.1358,2.14,2.142,2.145,2.1466,2.1486,2.1505,2.1541,2.1564,2.158,2.1603,2.1631,2.1655,2.1661,2.1669,2.167,2.1677,2.1663,2.1662,2.166,2.1655,2.1672,2.1672,2.169,2.169,2.169]},{"header":{"parameterUnit":"m.s-1","parameterCategory":1,"la1":30.2991,"la2":30.254,"lo1":-89.0895,"lo2":-89.0444,"dy":0.0017,"dx":0.0017,"nx":28,"ny":28,"refTime":"2025-05-28T03:00:00:Z","depth":0,"parameterNumber":3,"parameterNumberName":"V-component_of_WINDS"},"data":[0,0,0,0,0,0,0,0,0,0,0,0,0,0,0,0,0,0,0,0,0,0,0,0,0,0,0,0,0,0,0,0,0,0,0,0,0,0,0,0,0,0,0,0,0,0,0,0,0,0,0,0,0,0,0,0,0,0,3.4021,3.4023,0,3.4183,3.4185,3.4187,3.4242,3.4241,3.424,3.424,3.44,3.4405,3.441,0,0,0,0,0,0,0,0,0,0,0,0,0,3.3752,3.3757,3.4021,3.4023,3.4025,3.4183,3.4185,3.4187,3.4242,3.4241,3.424,3.424,3.4399,3.4404,3.441,0,0,0,0,0,0,0,0,0,0,0,0,0,3.3887,3.3759,3.4021,3.4072,3.4078,3.4183,3.4185,3.4188,3.4242,3.4241,3.424,3.4239,3.4397,3.4404,3.4411,3.4475,0,0,3.4433,3.4436,0,0,0,0,0,0,0,0,3.3879,3.3897,3.4062,3.4068,3.4075,3.4192,3.4149,3.4284,3.4242,3.4179,3.424,3.4239,3.4331,3.4344,3.4376,3.4483,3.449,3.4434,3.4438,3.4441,3.4444,0,0,0,0,0,0,0,3.387,3.389,3.4085,3.4064,3.4073,3.4084,3.4102,3.4175,3.4258,3.4185,3.4189,3.4208,3.4334,3.4369,3.438,3.4492,3.4434,3.444,3.4445,3.4448,3.4659,3.466,0,0,0,0,0,0,3.3853,3.3882,3.408,3.409,3.3973,3.409,3.411,3.4155,3.4258,3.4273,3.4209,3.421,3.4357,3.4372,3.4386,3.4469,3.4441,3.4448,3.4452,3.4658,3.4659,3.466,0,0,0,0,0,0,3.3847,3.387,3.4074,3.3987,3.4014,3.4095,3.4146,3.4159,3.4193,3.4276,3.4291,3.4229,3.4357,3.4376,3.4453,3.4475,3.4452,3.4458,3.4656,3.4658,3.466,3.4633,0,0,0,0,0,0,3.3839,3.3868,3.3895,3.3988,3.4019,3.414,3.4147,3.4163,3.4207,3.421,3.4299,3.4313,3.4357,3.4442,3.446,3.4484,3.4464,3.4655,3.4657,3.4659,3.4633,3.4634,3.4635,0,0,0,0,0,3.3829,3.388,3.3896,3.3919,3.4054,3.4141,3.4158,3.421,3.4208,3.4235,3.4288,3.431,3.4469,3.4449,3.447,3.4497,3.4653,3.4656,3.4659,3.4632,3.4634,3.4635,0,0,0,0,0,0,3.3785,3.3893,3.3912,3.3994,3.4058,3.415,3.4186,3.4211,3.4275,3.4275,3.4335,3.4355,3.4427,3.447,3.4446,3.4564,3.4562,3.4569,3.4534,3.4537,3.4538,3.4527,3.447,0,0,0,0,0,3.3785,3.3849,3.3938,3.4002,3.4033,3.4104,3.4143,3.4178,3.4246,3.4273,3.4331,3.4394,3.4459,3.45,3.4564,3.4638,3.4658,3.4667,3.4668,3.4669,3.4675,3.4717,3.4722,3.467,3.4669,3.4669,0,0,3.3786,3.3852,3.3888,3.3995,3.4049,3.4111,3.4126,3.4191,3.4238,3.4282,3.4359,3.4404,3.4478,3.4555,3.4591,3.4592,3.4693,3.4672,3.4672,3.4678,3.472,3.4725,3.4729,3.4671,3.4671,3.4671,0,0,3.3819,3.3876,3.3936,3.3989,3.4071,3.4117,3.4131,3.4219,3.4251,3.433,3.4364,3.4418,3.4528,3.458,3.462,3.4671,3.4694,3.469,3.4697,3.4738,3.4742,3.4746,3.4764,3.477,3.4695,3.4695,3.4695,0,3.3809,3.3907,3.3962,3.4027,3.4072,3.4116,3.4176,3.4224,3.4321,3.435,3.435,3.4489,3.4542,3.4631,3.4643,3.4674,3.4691,3.4681,3.4737,3.4742,3.4746,3.4764,3.4771,3.4694,3.4694,3.4695,3.4695,0,3.389,3.3957,3.3994,3.409,3.4139,3.42,3.4263,3.4306,3.4335,3.4381,3.4459,3.4524,3.4602,3.4625,3.4654,3.4718,3.4716,3.4726,3.4725,3.4749,3.4768,3.4775,3.4693,3.4693,3.4694,3.4694,0,0,3.3901,3.4026,3.4039,3.4083,3.4175,3.4227,3.4289,3.4367,3.4402,3.4466,3.452,3.4611,3.462,3.4666,3.4701,3.4736,3.4772,3.4742,3.4744,3.4746,3.4846,3.484,3.4847,3.4787,3.4789,3.479,3.484,0,3.3947,3.4063,3.4115,3.4206,3.4268,3.431,3.4364,3.4425,3.4469,3.4526,3.4573,3.4637,3.4644,3.4672,3.4709,3.476,3.4794,3.4757,3.4836,3.4839,3.4818,3.4856,3.485,3.4894,3.4848,3.4849,3.485,0,3.4017,3.4084,3.4182,3.4267,3.4295,3.4343,3.4418,3.4472,3.4542,3.4571,3.4621,3.4655,3.4719,3.4713,3.4803,3.4777,3.4812,3.4841,3.4844,3.4855,3.4847,3.4868,3.4909,3.4916,3.4862,3.4861,3.486,0,3.4016,3.413,3.4204,3.424,3.434,3.4373,3.4416,3.4485,3.4528,3.4592,3.4621,3.4691,3.4729,3.4782,3.4832,3.4823,3.4917,3.4915,3.4942,3.4941,3.4961,3.4959,3.5009,3.4981,3.4981,3.4981,3.4981,0,3.4062,3.4121,3.4205,3.4251,3.4317,3.4374,3.4437,3.4483,3.4544,3.4597,3.4636,3.4685,3.4748,3.4805,3.4844,3.4912,3.4929,3.4953,3.4963,3.4951,3.4948,3.4975,3.4974,3.4983,3.4983,3.4982,3.4982,0,3.4073,3.4132,3.4216,3.4304,3.4328,3.4373,3.4447,3.4492,3.4537,3.4604,3.4623,3.4693,3.4761,3.4816,3.4905,3.4931,3.5003,3.5014,3.498,3.4986,3.501,3.5007,3.5081,3.5093,3.5055,3.5056,3.5056,0,3.41,3.4146,3.424,3.428,3.4323,3.4386,3.4431,3.4487,3.4532,3.4614,3.4648,3.4719,3.478,3.4887,3.4944,3.5012,3.5025,3.5046,3.5035,3.5021,3.5026,3.5024,3.5028,3.5047,3.5047,3.5047,3.5048,0,3.414,3.4167,3.4231,3.4305,3.4358,3.4418,3.4479,3.4509,3.4576,3.4624,3.4695,3.4742,3.4833,3.4903,3.4977,3.5019,3.5044,3.505,3.506,3.5049,3.5028,3.504,3.4984,3.5049,3.5048,3.5048,3.5048,3.5048,3.4161,3.4204,3.4277,3.4347,3.4399,3.4455,3.4501,3.4552,3.4614,3.4694,3.4722,3.4795,3.4862,3.4964,3.5006,3.5063,3.5065,3.5079,3.5083,3.5086,3.5085,3.5017,3.5076,3.5076,3.5076,3.5076,3.5076,0,3.4204,3.4253,3.4317,3.4402,3.4456,3.4476,3.4545,3.4588,3.4653,3.4714,3.4773,3.4854,3.4922,3.4984,3.5054,3.5088,3.5101,3.5104,3.5103,3.5112,3.5079,3.5064,3.5092,3.5092,3.5092,3.5092,3.5092,3.5092,3.4234,3.4308,3.4343,3.4443,3.4491,3.4565,3.4602,3.4653,3.4702,3.4792,3.4849,3.489,3.4951,3.5026,3.5089,3.5105,3.5129,3.513,3.5149,3.5117,3.5115,3.5112,3.5099,3.5134,3.5134,3.5178,3.5179,3.5179]}]]